Weather in Newman

Australia     23°20′52″S   119°49′17″E
temp.,
°C
wind,
m/s
gust,
m/s
humid.,
%
clouds,
%
prec.,
mm/h
press.,
hPa
HPBL,
m
14 april, wed
wed1423:00+22e4479100 1.4 1016384
02:00+22e4576100 1.6 1015532
05:00+21ese678076 0.0 1015585
08:00+21ese7875100 0.3 1017636
11:00+24e666271 0.7 10171070
14:00+25e5555100 0.8 10141430
17:00+25ese6656100 0.0 10151154
20:00+22ese5770100 2.0 1017564
15 april, thu
thu1523:00+19ese4582100 6.7 1019378
02:00+18ese7779100 9.9 1017376
05:00+18se687498 0.0 1018422
08:00+19ese91154100 0.0 1019568
11:00+23ese884323 0.0 10181024
14:00+26ese77371 0.0 10151405
17:00+25ese77385 0.0 10161417
20:00+23ese610480 0.0 1018425
16 april, fri
fri1623:00+21ese512490 0.0 1019459
02:00+19ese614460 0.0 1018504
05:00+18ese713470 0.0 1019490
08:00+19ese913450 0.0 1021624
11:00+24e910380 0.0 10191050
14:00+27e88330 0.0 10161493
17:00+27e77340 0.0 10171565
20:00+24ese37415 0.0 1019153
17 april, sat
sat1723:00+23ese511426 0.0 1020300
02:00+21ese512430 0.0 1020351
05:00+20ese410370 0.0 1021316
08:00+21e712290 0.0 1022567
11:00+26ene89260 0.0 10211064
14:00+28ene77250 0.0 10181602
17:00+28ene56250 0.0 10181708
20:00+25ese353215 0.0 102182
18 april, sun
sun1823:00+24e473178 0.0 1021137
02:00+22e49340 0.0 1020200
05:00+20e411310 0.0 1021258
08:00+21ene712240 0.0 1022595
11:00+26ene78190 0.0 10211191
14:00+28ene55190 0.0 10181684
17:00+27ese55200 0.0 10171929
20:00+24ese35260 0.0 101984